Home   Weather   Newtown   Past weeks

Flag for United Kingdom Past Weather in Newtown, Wales, United Kingdom — Yesterday and Last 2 Weeks

Now
38 °F

Chilly.


Feels Like: 38 °F
Forecast: 44 / 54 °F
Wind: 2 mph from Northeast

Location: Lake Vyrnwy

Current Time: Apr 29, 2017 at 8:38:02 am

Latest Report: Apr 29, 2017 at 7:00 am


Visibility: 25 mi

Pressure: 29.96 "Hg

Humidity: 96%

Dew Point: 36 °F

Location of NewtownLocation

Past Weather in Newtown — Graph

°F

Newtown Temperature Yesterday

Maximum temperature yesterday: 49 °F (at 4:00 pm)
Minimum temperature yesterday: 40 °F (at 11:00 pm)
Average temperature yesterday: 44 °F

High & Low Weather Summary for the Past Weeks

 TemperatureHumidityPressure
High54 °F (Apr 23, 4:00 pm)100% (Apr 14, 8:00 am)30.61 "Hg (Apr 14, 8:00 am)
Low31 °F (Apr 26, 5:00 am)44% (Apr 22, 3:00 pm)29.93 "Hg (Apr 14, 5:00 pm)
Average43 °F81%30.24 "Hg
* Reported Apr 14 7:00 am — Apr 29 7:00 am, Newtown, Weather by CustomWeather, © 2017

Note: Actual official high and low records may vary slightly from our data, if they occured in-between our weather recording intervals... More about our weather records

Advertising

Newtown Weather History for the Previous 24 Hours

Scroll right to see more
 ConditionsComfort  
Time TempWeatherWind HumidityBarometerVisibility
7:00 am
Sat, Apr 29
38 °FChilly.2 mph96%29.96 "Hg25 mi
6:00 am37 °FChilly.2 mph95%29.96 "Hg31 mi
5:00 am36 °FChilly.2 mph96%29.97 "Hg17 mi
4:00 am36 °FChilly.1 mph97%29.98 "Hg28 mi
3:00 am37 °FChilly.No wind91%29.98 "Hg31 mi
2:00 am38 °FChilly.2 mph92%30.00 "Hg31 mi
1:00 am37 °FChilly.2 mph91%30.01 "Hg31 mi
12:00 am38 °FChilly.2 mph91%30.01 "Hg31 mi
11:00 pm
Fri, Apr 28
40 °FChilly.14 mph86%30.01 "Hg31 mi
10:00 pm42 °FQuite cool.7 mph83%30.02 "Hg31 mi
9:00 pm42 °FQuite cool.5 mph84%30.01 "Hg31 mi
8:00 pm44 °FQuite cool.8 mph81%30.01 "Hg31 mi
7:00 pm45 °FQuite cool.10 mph77%30.01 "Hg31 mi
6:00 pm47 °FCool.10 mph75%30.01 "Hg31 mi
5:00 pm47 °FCool.12 mph77%30.01 "Hg31 mi
4:00 pm49 °FCool.8 mph73%30.01 "Hg31 mi
3:00 pm47 °FCool.9 mph76%30.02 "Hg31 mi
2:00 pm47 °FCool.12 mph78%30.02 "Hg31 mi
1:00 pm48 °FCool.5 mph73%30.01 "Hg31 mi
12:00 pm48 °FCool.7 mph78%30.02 "Hg31 mi
11:00 am46 °FCool.7 mph88%30.04 "Hg3 mi
9:00 am45 °FCool.6 mph86%30.04 "Hg31 mi
8:00 am44 °FQuite cool.8 mph89%30.04 "Hg31 mi
Weather by CustomWeather, © 2017

See weather overviewHow to use our weather pages